Location: Torrington
(42.0650°N, 104.1810°W)
Time: 13:09:35
(UTC-06:00)

Daily predictions for brighter satellites

Satellite Brightness Start Highest point End
(mag) Time Altitude Azimuth Time Altitude Azimuth Time Altitude Azimuth
YAOGAN 11 4.3 20:52:24 10° S 20:56:43 76° WSW 21:01:03 10° NNW
deb Chang Zheng 4 3.7 20:55:19 10° NNE 20:59:41 60° ESE 21:03:59 10° S
Okean 2 4.0 20:57:19 10° SSW 21:01:27 63° W 21:05:37 10° N
Cosmos 1464 Rocket 4.1 20:55:44 10° N 21:01:54 81° W 21:08:04 10° S
H-2A R/B 2.1 20:57:58 10° SSE 21:02:12 70° ENE 21:06:36 10° N
Cosmos 1666 3.0 21:02:19 10° NNW 21:06:13 71° W 21:10:05 10° S
CZ-2C R/B 1.1 21:05:45 10° S 21:07:59 52° W 21:10:14 10° NNW
Cosmos 2369 Rocket 3.0 21:03:32 10° N 21:08:47 37° ENE 21:13:56 10° SE
Cosmos 2228 3.4 21:04:51 10° NNW 21:09:15 68° W 21:13:36 10° S
Cosmos 1626 Rocket 3.5 21:05:30 10° S 21:09:55 77° E 21:14:21 10° N
SJ-11-01 4.3 21:07:02 10° SSE 21:11:42 87° WSW 21:16:25 10° NNW
Lacrosse 4 Rocket 2.6 21:10:40 10° SSE 21:13:44 21° ESE 21:16:49 10° ENE
SL-16 R/B 4.1 21:14:26 10° WSW 21:19:32 34° WNW 21:24:41 10° N
GRACE-1 3.9 21:17:13 10° N 21:20:05 68° E 21:22:55 10° S
GRACE-2 3.9 21:17:40 10° N 21:20:32 69° E 21:23:22 10° S
Cosmos 2034 Rocket 4.3 21:16:12 10° N 21:22:35 76° W 21:28:51 10° S
SeaSat 1 2.9 21:18:29 11° SE 21:22:59 49° ENE 21:27:44 10° NNW
YAOGAN 6 3.6 21:29:04 15° SE 21:31:39 34° ENE 21:35:03 10° N
Nimbus 7 Rocket 4.4 21:28:10 10° NNE 21:34:09 86° ESE 21:40:03 10° SSW
Cosmos 1190 Rocket 4.3 21:29:57 10° S 21:35:00 46° ESE 21:40:04 10° NNE
CZ-4B R/B 3.9 21:30:29 10° NNE 21:35:24 45° E 21:40:22 10° S
Cosmos 1238 4.0 21:32:36 10° S 21:35:41 81° E 21:38:44 10° N
Cosmos 1515 3.6 21:34:11 10° S 21:38:00 70° E 21:41:52 10° NNE
H-2A R/B 3.7 21:36:00 11° ESE 21:39:09 19° ENE 21:42:40 10° NNE
ISS -2.6 21:36:22 10° WSW 21:39:36 58° NNW 21:42:50 10° NE
Atlas Centaur 2 3.6 21:36:58 10° WSW 21:43:26 35° S 21:49:12 16° ESE
SPOT 1/Viking Rocket 3.8 21:43:56 17° SE 21:47:49 56° ENE 21:52:52 10° N
Cosmos 1066 Rocket 4.3 21:44:43 10° S 21:50:21 66° E 21:56:08 10° NNE
PSLV R/B 3.3 21:49:11 10° W 21:52:43 76° S 21:55:15 18° E
ATLAS 3B R/B 2.9 21:46:31 10° SSW 21:54:08 68° ESE 22:01:37 10° NE
Cosmos 1939 Rocket 4.2 21:51:16 10° SSW 21:55:09 39° W 21:59:03 10° NNW
Meteor 1-22 Rocket 4.4 21:49:56 10° N 21:55:31 62° ENE 21:59:36 20° SSE
CZ-4 R/B 4.2 21:52:01 10° NNE 21:56:53 49° E 22:00:29 18° S
Cosmos 1953 4.0 21:55:33 10° NNE 21:58:31 20° ENE 21:59:43 17° E
Lacrosse 5 rocket 4.5 21:56:52 10° NW 21:58:34 12° NNW 22:00:18 10° NNE
MetOp-A 4.2 21:54:58 15° S 21:59:28 82° WSW 22:04:52 10° NNW
Cosmos 1758 Rocket 3.7 22:00:48 21° SSE 22:03:30 55° E 22:07:46 10° NNE
Cosmos 1943 Rocket 2.9 22:00:34 10° NNW 22:05:50 42° ENE 22:09:02 22° ESE
SPOT 5 3.4 22:02:15 13° S 22:06:03 48° W 22:10:15 10° NNW
Kosmos-1675 4.0 22:06:53 29° SSE 22:07:59 38° ESE 22:15:12 10° NE
Cosmos 1943 3.4 22:04:16 10° SSW 22:09:55 77° WNW 22:15:39 10° NNE
USA 234 3.3 22:06:30 19° ESE 22:11:24 76° NE 22:17:58 10° NW
Terra 2.8 22:10:21 22° ESE 22:12:28 33° ENE 22:16:42 10° N
Cosmos 1346 Rocket 2.7 22:09:56 19° S 22:12:41 90° WNW 22:16:39 10° N
Envisat 4.2 22:11:53 10° SSW 22:16:33 37° W 22:21:15 10° NNW
DELTA 2 DEB (DPAF) 4.3 22:16:28 30° SE 22:18:33 63° ENE 22:23:00 10° N
SL-27 R/B 3.1 22:19:49 33° E 22:19:49 33° E 22:22:38 10° NE
Cosmos 1825 Rocket 4.2 22:15:39 10° SSW 22:20:01 56° W 22:24:23 10° N
Cosmos 407 Rocket 3.5 22:15:27 10° SSW 22:20:43 88° WNW 22:25:59 10° NNE
Cosmos 1842 3.6 22:20:16 37° SE 22:21:18 47° E 22:25:06 10° NNE
COSMOS 2455 4.2 22:17:19 10° WSW 22:22:58 41° NW 22:28:39 10° NNE
Meteor 1-21 4.2 22:30:11 19° S 22:34:27 90° W 22:40:19 10° N
USA 238 DEB 3.8 22:30:15 12° SSW 22:36:44 56° ESE 22:43:36 10° NE
USA 238 3.8 22:30:31 13° SSW 22:36:49 55° ESE 22:43:40 10° NE
ARGOS 3.5 22:37:09 25° S 22:40:17 62° W 22:45:41 10° NNW
Cosmos 1954 Rocket 3.9 22:37:45 22° SSW 22:41:15 82° ESE 22:46:34 10° NNE
IGS 5A 3.7 22:41:59 44° ESE 22:42:56 56° ENE 22:47:02 10° N
Cosmos 1766 3.7 22:41:01 10° NNW 22:44:57 58° W 22:46:19 37° SSW
Cosmos 1758 3.4 22:41:52 10° N 22:45:59 66° E 22:46:45 52° SE
Cosmos 2208 Rocket 4.3 22:41:48 10° N 22:46:53 53° ENE 22:48:36 37° ESE
Cosmos 1092 Rocket 4.5 22:47:06 33° SE 22:49:15 43° E 22:55:09 10° NNE
Cosmos 2084 3.4 22:47:11 10° NW 22:51:21 78° NE 22:52:16 54° SE
Lacrosse 4 Rocket 3.0 22:48:31 10° WSW 22:52:14 34° NW 22:56:00 10° NNE
Cosmos 2369 Rocket 3.4 22:47:43 10° NW 22:52:42 33° WSW 22:55:45 20° SSW
SL-8 R/B 4.1 22:51:00 10° WNW 22:55:48 59° NNE 22:58:15 28° E
Nadezhda 4 Rocket 4.0 22:55:51 35° SSE 22:58:37 70° E 23:04:56 10° NNE
SeaSat 1 4.2 22:58:17 16° SW 23:00:42 23° WSW 23:04:34 10° NW
Cosmos 1741 Rocket 4.0 23:01:31 45° SSE 23:02:55 62° ESE 23:08:11 10° NNE
Spot 2 4.3 23:01:47 10° NNE 23:06:40 88° WNW 23:08:28 41° SSW
Geosat 4.1 23:03:08 10° NNE 23:08:11 73° WNW 23:11:23 23° SW
Cosmos 1340 3.7 23:09:24 33° ENE 23:09:24 33° ENE 23:12:13 10° NNE
Cosmos 2221 3.9 23:07:29 10° NNE 23:11:07 26° ENE 23:11:18 26° ENE
NOSS 3-2 (C) 4.3 23:11:29 30° ESE 23:11:29 30° ESE 23:16:49 10° NE
Cosmos 1470 3.3 23:08:24 10° N 23:11:59 43° ENE 23:11:59 43° ENE
Cosmos-2242 3.8 23:09:46 10° NNW 23:14:00 46° W 23:15:08 37° SW
Cosmos 1805 3.4 23:10:37 10° NNW 23:14:32 64° W 23:14:51 61° SW
ISS -0.3 23:14:12 10° WNW 23:16:33 18° NNW 23:18:55 10° NE
H-2A R/B 2.4 23:16:38 39° SSW 23:18:07 54° W 23:23:06 10° NNW
Cosmos 1850 Rocket 3.9 23:17:56 45° SSW 23:19:36 90° WSW 23:24:52 10° NNE
Cosmos 1544 3.2 23:16:58 10° N 23:20:28 72° NE 23:20:28 72° NE
Cosmos 1570 Rocket 4.1 23:15:54 10° NNW 23:21:15 72° WSW 23:22:33 51° S
CZ-4C R/B 2.6 23:30:35 43° ESE 23:30:35 43° ESE 23:35:50 10° NE
Cosmos 1140 Rocket 4.0 23:27:53 28° SW 23:30:33 57° WNW 23:35:44 10° NNE
COSMOS 2406 3.5 23:27:46 26° SW 23:31:00 66° WNW 23:36:44 10° NNE
Atlas Centaur 2 3.8 23:25:43 10° WSW 23:31:50 30° SSW 23:31:50 30° SSW
Cosmos 1607 3.9 23:29:44 27° SW 23:33:25 84° WNW 23:39:40 10° NNE
Cosmos 1953 3.7 23:31:32 10° NNW 23:35:00 29° W 23:35:29 28° WSW
Cosmos 2026 Rocket 4.1 23:36:59 48° SE 23:38:11 57° E 23:44:07 10° NNE
Cosmos 2195 Rocket 4.5 23:37:43 51° SSE 23:39:10 67° E 23:45:23 10° NNE
Okean 3 Rocket 3.4 23:41:45 88° SSW 23:41:48 90° NW 23:46:15 10° N
Cosmos 2082 Rocket 3.9 23:45:38 18° E 23:45:38 18° E 23:48:47 10° ENE
ATLAS 3B R/B 4.5 23:38:34 10° WSW 23:45:26 34° NW 23:52:08 10° NNE
Cosmos 1707 3.1 23:48:09 64° NNE 23:48:09 64° NNE 23:51:32 10° N
Cosmos 1627 Rocket 4.4 23:46:20 55° SSE 23:47:43 77° E 23:53:51 10° N
Cosmos 1943 Rocket 3.4 23:44:42 10° NW 23:49:22 28° WSW 23:50:34 26° SW
Terra 3.2 23:49:14 25° WSW 23:50:12 27° W 23:54:15 10° NW
